sat.trackr.live / text

‹ back to catalog

FLOCK 4Q-11

NORAD 58273 · 2023-174T

PAYLOAD ACTIVE UNKNOWN

§ Identity

Operator
Country
US
Launch date
2023-11-11
Launch site
AFWTR
Launch vehicle
Mass (kg)
RCS (m²)

Purposes: earth_obs

External: N2YO · Heavens-Above · Gunter

§ Orbital elements

Epoch: 2026-05-25T05:12:43.215840Z

Period
92.99 min
Inclination
97.3873°
Eccentricity
0.0005226
Mean motion
15.48537971 rev/d
Perigee alt
417.4 km
Apogee alt
424.6 km
Semi-major
6,799.1 km
B*
3.9549e-4
RAAN
233.3874°
Arg perigee
226.4559°
Mean anomaly
133.6258°
Rev number
14,203

§ Raw data

FLOCK 4Q-111 58273U 23174T   26145.21716685  .00021001  00000+0  39549-3 0  99922 58273  97.3873 233.3874 0005226 226.4559 133.6258 15.48537971142030

JSON: /api/v1/satellites/58273 · /tle

For live sub-satellite position, see the globe view (requires WebGL).

§ Visibility from observer

Set your observer location to see the next 7 days of passes ≥ 10°. The values pass through the URL so the page stays shareable.

No JS? Fill the form by hand. The geolocation button needs JavaScript.